Regional Weather Roundup
Issued by NWS Little Rock, AR

Home | Current Version | Previous Version | Text Only | Print | Product List | Glossary On
Versions: 1 2 3 4 5 6 7 8 9 10 11 12 13 14 15 16 17 18 19 20 21 22 23 24 25 26 27
000
ASUS44 KLZK 260805
RWRLZK

WEATHER ROUNDUP FOR ARKANSAS
NATIONAL WEATHER SERVICE LITTLE ROCK AR
300 AM CDT SUN OCT 26 2014

NOTE: "FAIR" INDICATES FEW OR NO CLOUDS BELOW 12,000 FEET WITH NO
SIGNIFICANT WEATHER AND/OR OBSTRUCTIONS TO VISIBILITY.

ARZ001-003-010-029-260900-
NORTHWEST ARKANSAS

CITY           SKY/WX    TMP DP  RH WIND       PRES   REMARKS
FAYETTEVILLE   CLEAR     54  54 100 CALM      30.02F FOG
FORT SMITH     CLEAR     63  61  93 NE3       30.00S FOG
HARRISON       CLEAR     60  60 100 CALM      30.02F
BENTONVILLE    CLEAR     63  59  88 CALM      30.02S
ROGERS         CLEAR     62  59  90 SE5       30.03S
SILOAM SPGS    CLEAR     61  55  82 SE3       30.02S
HIGHFILL       CLEAR     58  58 100 CALM      30.01S FOG
$$

ARZ004-005-016-260900-
NORTH CENTRAL ARKANSAS

CITY           SKY/WX    TMP DP  RH WIND       PRES   REMARKS
BATESVILLE     CLEAR     61  57  88 CALM      29.99S
FLIPPIN        CLEAR     57  54  88 CALM      30.01S
MTN HOME       CLEAR     60  59  96 CALM      30.00S FOG
$$

ARZ040-041-260900-
WEST CENTRAL ARKANSAS

CITY           SKY/WX    TMP DP  RH WIND       PRES   REMARKS
MENA           CLEAR     64  63  94 CALM      30.04F
MOUNT IDA      MOCLDY    59  57  93 CALM      30.00F FOG
$$

ARZ009-017-025-026-028-260900-
NORTHEAST ARKANSAS

CITY           SKY/WX    TMP DP  RH WIND       PRES   REMARKS
CORNING        FOG       57  57 100 CALM      29.99S VSB<1/4
JONESBORO      CLEAR     62  62 100 W3        29.99S
NEWPORT        CLEAR     62  62 100 SE7       29.99F FOG
WALNUT RIDGE     N/A     57  54  88 SE3       29.98F VSB<1/4
BLYTHEVILLE    CLEAR     63  62  97 S6        29.99S
$$

ARZ022-023-033-042-044-260900-
CENTRAL ARKANSAS

CITY           SKY/WX    TMP DP  RH WIND       PRES   REMARKS
LITTLE ROCK    CLEAR     62  59  90 CALM      30.01F FOG
N LITTLE ROCK    N/A     65  64  97 SW3       30.01F
JACKSONVILLE   CLEAR     57  57  98 CALM      30.00F
SEARCY         FOG       60  60 100 CALM      30.01F VSB 1/4
HOT SPRINGS    CLEAR     61  60  97 CALM      30.02F FOG
RUSSELLVILLE   CLOUDY    58  56  93 CALM      30.00F FOG
$$

ARZ036-260900-
EAST ARKANSAS

CITY           SKY/WX    TMP DP  RH WIND       PRES   REMARKS
WEST MEMPHIS   CLEAR     59  59 100 S5        29.99S FOG
$$

ARZ050-053-066-070-073-260900-
SOUTHWEST ARKANSAS

CITY           SKY/WX    TMP DP  RH WIND       PRES   REMARKS
ARKADELPHIA    FOG       58  58 100 CALM      30.03S VSB<1/4
CAMDEN         CLEAR     57  57 100 CALM      30.02F FOG
TEXARKANA      CLEAR     64  62  93 SW6       30.02F
EL DORADO      CLEAR     59  57  93 CALM      30.03F
DE QUEEN       FOG       57  57 100 CALM      30.01S VSB 1/4
$$

ARZ056-057-069-260900-
SOUTHEAST ARKANSAS

CITY           SKY/WX    TMP DP  RH WIND       PRES   REMARKS
PINE BLUFF     FOG       60  59  96 CALM      30.02S VSB 3/4
STUTTGART      CLEAR     63  59  88 SW8       30.01F
MONTICELLO     CLEAR     67  62  84 W3        30.02F

$$





USA.gov is the U.S. government's official web portal to all federal, state and local government web resources and services.